This demonstration page uses our WeatherBlox Daily Observations layout. Learn more.

Left ArrowRight Arrow

Hourly Observations for June 8, 2020

Temp ( °F °C ) Dew Point ( °F °C ) Humidity (%) Winds ( mph kmh ) Pressure ( in mb ) Visibility ( mi km ) Precip ( " mm )
12:35 am 00:35 Mostly Cloudy 77 25 70 21.1 79 79 E 3 6 29.91 1013 10 16 0.00 0.00
12:53 am 00:53 Partly Cloudy 77 25 70 21.1 79 79 E 5 7 29.91 1013 10 16 0.00 0.00
1:22 am 01:22 Mostly Cloudy 77 25 71 21.7 82 82 ESE 3 6 29.90 1013 10 16 0.00 0.00
1:53 am 01:53 Mostly Cloudy 76 24.4 71 21.7 85 85 SE 5 7 29.90 1013 10 16 0.00 0.00
2:15 am 02:15 Partly Cloudy 76 24.4 71 21.7 85 85 SSE 3 6 29.89 1012 10 16 0.00 0.00
2:53 am 02:53 Clear 76 24.4 71 21.7 85 85 E 3 6 29.89 1012 10 16 0.00 0.00
3:53 am 03:53 Mostly Clear 75 23.9 70 21.1 84 84 Calm 29.88 1012 10 16 0.00 0.00
4:43 am 04:43 Mostly Cloudy 74 23.3 70 21.1 88 88 Calm 29.88 1012 10 16 0.00 0.00
4:53 am 04:53 Partly Cloudy 74 23.3 70 21.1 88 88 Calm 29.88 1012 10 16 0.00 0.00
5:53 am 05:53 Mostly Clear 73 22.8 70 21.1 90 90 E 3 6 29.89 1012 10 16 0.00 0.00
6:53 am 06:53 Mostly Cloudy 74 23.3 70 21.1 88 88 VRB 5 7 29.91 1013 10 16 0.00 0.00
7:15 am 07:15 Cloudy 75 23.9 70 21.1 84 84 ESE 8 13 29.91 1013 10 16 0.00 0.00
7:28 am 07:28 Cloudy 75 23.9 70 21.1 84 84 SE 7 11 29.92 1013 10 16 0.00 0.00
7:53 am 07:53 Cloudy 75 23.9 70 21.1 84 84 ESE 6 9 29.92 1013 10 16 0.00 0.00
8:33 am 08:33 Cloudy 76 24.4 70 21.1 82 82 ESE 6 9 29.92 1013 10 16 0.00 0.00
8:53 am 08:53 Cloudy 76 24.4 70 21.1 82 82 ESE 9 15 29.92 1013 10 16 0.00 0.00
9:53 am 09:53 Cloudy 77 25 71 21.7 82 82 ESE 9 15 29.93 1014 10 16 0.00 0.00
10:53 am 10:53 Mostly Cloudy 79 26.1 70 21.1 74 74 SSE 8 13 29.93 1013 10 16 0.00 0.00
11:53 am 11:53 Mostly Cloudy 81 27.2 70 21.1 69 69 SE 8 13 29.94 1014 10 16 0.00 0.00
12:00 pm 12:00 Partly Cloudy 80 26.7 70 21.1 71 71 ESE 9 15 29.93 1013 10 16 0.00 0.00
12:20 pm 12:20 Mostly Cloudy 81 27.2 70 21.1 69 69 ESE 9 15 29.94 1014 10 16 0.00 0.00
12:53 pm 12:53 Mostly Cloudy 80 26.7 70 21.1 71 71 ESE 12 19 29.94 1014 10 16 0.00 0.00
1:53 pm 13:53 Mostly Cloudy 81 27.2 69 20.6 67 67 ESE 7 11 29.94 1014 10 16 0.00 0.00
2:53 pm 14:53 Mostly Cloudy 83 28.3 70 21.1 65 65 VRB 7 11 29.93 1013 10 16 0.00 0.00
3:00 pm 15:00 Cloudy 83 28.3 70 21.1 65 65 ESE 9 15 29.91 1013 10 16 0.00 0.00
3:53 pm 15:53 Cloudy 83 28.3 71 21.7 67 67 ESE 9 15 29.90 1013 10 16 0.00 0.00
4:53 pm 16:53 Cloudy 84 28.9 71 21.7 65 65 ESE 8 13 29.88 1012 10 16 0.00 0.00
5:53 pm 17:53 Mostly Sunny 85 29.4 70 21.1 61 61 SSE 8 13 29.88 1012 10 16 0.00 0.00
6:53 pm 18:53 Partly Cloudy 85 29.4 70 21.1 61 61 ESE 6 9 29.87 1012 10 16 0.00 0.00
7:53 pm 19:53 Mostly Cloudy 84 28.9 70 21.1 63 63 VRB 7 11 29.88 1012 10 16 0.00 0.00
8:53 pm 20:53 Cloudy 82 27.8 71 21.7 69 69 SE 5 7 29.89 1012 10 16 0.00 0.00
9:53 pm 21:53 Partly Cloudy 82 27.8 72 22.2 72 72 ESE 8 13 29.91 1013 10 16 0.00 0.00
10:06 pm 22:06 Mostly Cloudy with Nearby Thunderstorms 81 27.2 72 22.2 74 74 SE 9 15 29.91 1013 10 16 0.00 0.00
10:22 pm 22:22 Partly Cloudy 80 26.7 72 22.2 76 76 ESE 8 13 29.90 1012 10 16 0.00 0.00
10:53 pm 22:53 Clear 80 26.7 72 22.2 76 76 ESE 5 7 29.91 1013 10 16 0.00 0.00
11:53 pm 23:53 Clear 78 25.6 73 22.8 85 85 SE 8 13 29.92 1013 10 16 0.00 0.00

Powered by AerisWeather